[[{"header":{"parameterUnit":"m.s-1","parameterCategory":1,"la1":30.2991,"la2":30.254,"lo1":-89.0895,"lo2":-89.0444,"dy":0.0017,"dx":0.0017,"nx":28,"ny":28,"refTime":"2026-01-30T03:00:00:Z","depth":0,"parameterNumber":2,"parameterNumberName":"U-component_of_WINDS"},"data":[0,0,0,0,0,0,0,0,0,0,0,0,0,0,0,0,0,0,0,0,0,0,0,0,0,0,0,0,0,0,0,0,0,0,0,0,0,0,0,0,0,0,0,0,0,0,0,0,0,0,0,0,0,0,0,0,0,0,3.8612,3.8612,0,3.8663,3.8663,3.8664,3.8628,3.8626,3.8624,3.8623,3.8673,3.8676,3.8679,0,0,0,0,0,0,0,0,0,0,0,0,0,3.8482,3.8485,3.8612,3.8612,3.8613,3.8663,3.8663,3.8664,3.8628,3.8626,3.8624,3.8622,3.8672,3.8676,3.8679,0,0,0,0,0,0,0,0,0,0,0,0,0,3.8536,3.8486,3.8612,3.8601,3.8601,3.8663,3.8663,3.8664,3.8628,3.8626,3.8623,3.8621,3.8671,3.8675,3.8679,3.8754,0,0,3.8692,3.8694,0,0,0,0,0,0,0,0,3.8533,3.8541,3.8602,3.8602,3.8601,3.8636,3.8636,3.8694,3.8629,3.8618,3.8623,3.862,3.8663,3.8667,3.8682,3.8756,3.8759,3.8693,3.8695,3.8697,3.8698,0,0,0,0,0,0,0,3.853,3.8539,3.8632,3.8603,3.8603,3.8593,3.8598,3.8647,3.8653,3.8618,3.8616,3.8623,3.8662,3.8678,3.8683,3.8759,3.8693,3.8696,3.8699,3.8701,3.8899,3.8902,0,0,0,0,0,0,3.8527,3.8536,3.863,3.8633,3.8561,3.8598,3.8603,3.8628,3.8652,3.8654,3.8625,3.8621,3.8672,3.8678,3.8685,3.8775,3.8697,3.8701,3.8704,3.8896,3.89,3.8902,0,0,0,0,0,0,3.8524,3.8536,3.8628,3.8584,3.8595,3.8603,3.863,3.863,3.8646,3.8657,3.8658,3.864,3.8671,3.8679,3.8738,3.8776,3.8703,3.8707,3.8893,3.8897,3.8901,3.8955,0,0,0,0,0,0,3.8521,3.8535,3.8563,3.8585,3.8598,3.868,3.8632,3.8633,3.8654,3.8649,3.8672,3.8673,3.8669,3.8732,3.8742,3.878,3.871,3.889,3.8895,3.89,3.8949,3.896,3.8969,0,0,0,0,0,3.8516,3.8576,3.8565,3.8577,3.8633,3.8683,3.869,3.8684,3.8657,3.8686,3.8693,3.8673,3.877,3.8738,3.8749,3.879,3.8887,3.8893,3.8899,3.8945,3.8958,3.8969,0,0,0,0,0,0,3.8557,3.8578,3.8567,3.8635,3.8657,3.8676,3.8712,3.8698,3.8728,3.8723,3.8714,3.872,3.8782,3.8792,3.8755,3.8864,3.8824,3.8833,3.8855,3.8868,3.8877,3.8873,3.8714,0,0,0,0,0,3.8574,3.8613,3.8629,3.8687,3.87,3.8704,3.8725,3.872,3.8742,3.8751,3.8763,3.8786,3.8822,3.8845,3.8879,3.8951,3.8956,3.8985,3.8995,3.9003,3.901,3.905,3.9063,3.8923,3.8922,3.8922,0,0,3.8609,3.8626,3.865,3.8696,3.8713,3.8753,3.8712,3.8756,3.8786,3.8758,3.8814,3.8824,3.8849,3.8915,3.8945,3.8925,3.905,3.901,3.9017,3.902,3.9058,3.9071,3.9083,3.8927,3.8926,3.8925,0,0,3.8694,3.871,3.8761,3.878,3.8806,3.8809,3.8822,3.8844,3.885,3.8907,3.8887,3.8922,3.8984,3.9003,3.902,3.9116,3.9098,3.9127,3.9177,3.9217,3.9228,3.9238,3.9272,3.9284,3.9134,3.9134,3.9134,0,3.8734,3.8794,3.8789,3.8835,3.8856,3.8835,3.8887,3.8904,3.894,3.8955,3.8933,3.9012,3.9027,3.9098,3.9121,3.9136,3.915,3.9123,3.9227,3.9237,3.9246,3.9278,3.9291,3.9138,3.9137,3.9137,3.9137,0,3.8842,3.8885,3.8923,3.896,3.8985,3.9034,3.9036,3.9063,3.9056,3.9062,3.9121,3.9138,3.9176,3.9192,3.9185,3.9263,3.925,3.9228,3.9188,3.9263,3.9293,3.9305,3.9142,3.9141,3.914,3.9139,0,0,3.8952,3.8987,3.9001,3.9018,3.9048,3.908,3.9128,3.9166,3.9189,3.9216,3.9256,3.931,3.929,3.9311,3.9306,3.934,3.9416,3.9314,3.9314,3.9332,3.9503,3.952,3.9534,3.9405,3.9407,3.9409,3.9501,0,3.9038,3.9123,3.9121,3.92,3.9239,3.9221,3.9263,3.9286,3.9293,3.9327,3.9335,3.9374,3.9344,3.9357,3.939,3.9399,3.945,3.9393,3.9442,3.9444,3.9436,3.955,3.9567,3.9653,3.9513,3.9515,3.9517,0,3.9149,3.9181,3.9264,3.9289,3.9306,3.9344,3.9379,3.9413,3.9438,3.9441,3.9465,3.9456,3.9505,3.9465,3.9533,3.9495,3.9515,3.9523,3.9526,3.953,3.9484,3.9557,3.968,3.9693,3.9535,3.9534,3.9532,0,3.9221,3.9285,3.9343,3.9358,3.9389,3.9416,3.943,3.9454,3.9477,3.9508,3.9524,3.956,3.958,3.9608,3.9609,3.9579,3.9678,3.9638,3.9682,3.9682,3.9702,3.9701,3.9831,3.9717,3.9717,3.9716,3.9716,0,3.9317,3.9369,3.9376,3.9412,3.9469,3.9467,3.9524,3.9536,3.9557,3.9595,3.9581,3.9617,3.9616,3.9653,3.9654,3.9711,3.972,3.9723,3.9723,3.9724,3.9724,3.9737,3.9731,3.972,3.9719,3.9718,3.9718,0,3.9407,3.9413,3.9476,3.9501,3.9508,3.955,3.9571,3.9605,3.9612,3.966,3.9671,3.9682,3.9725,3.9729,3.9778,3.9778,3.9847,3.9841,3.9839,3.9838,3.9882,3.9878,4.0024,4.0043,3.9917,3.9918,3.9919,0,3.9467,3.9507,3.9537,3.9562,3.9577,3.9617,3.9642,3.9642,3.9668,3.9702,3.9732,3.9774,3.9807,3.9876,3.9888,3.9926,3.992,3.9969,3.9925,3.9926,3.9921,3.9918,3.9922,3.9977,3.9978,3.9979,3.998,0,3.9574,3.9576,3.9612,3.9651,3.9681,3.971,3.9738,3.9759,3.9763,3.9793,3.9837,3.9863,3.9914,3.9956,3.9994,4.0008,3.9995,3.9994,4.0006,4.0008,4.0005,4.0007,3.9861,3.999,3.9989,3.9988,3.9988,3.9988,3.9651,3.9686,3.9713,3.9754,3.9775,3.9802,3.9836,3.9849,3.9885,3.9928,3.9926,3.9975,4.0001,4.0051,4.0068,4.0106,4.009,4.0107,4.0112,4.0116,4.0121,4.0,4.0113,4.0113,4.0113,4.0112,4.0112,0,3.9757,3.9774,3.9812,3.9853,3.9886,3.9872,3.9903,3.9931,3.9974,4.0001,4.0034,4.0086,4.0127,4.0143,4.0183,4.0211,4.0206,4.0221,4.0219,4.0222,4.0133,4.0118,4.0224,4.0224,4.0224,4.0224,4.0224,4.0224,3.9816,3.9875,3.988,3.995,3.9967,4.0015,4.0034,4.0059,4.008,4.0138,4.0173,4.0184,4.0206,4.0248,4.0286,4.0289,4.0305,4.0323,4.0324,4.024,4.0228,4.0218,4.0204,4.0326,4.0326,4.041,4.0411,4.0411]},{"header":{"parameterUnit":"m.s-1","parameterCategory":1,"la1":30.2991,"la2":30.254,"lo1":-89.0895,"lo2":-89.0444,"dy":0.0017,"dx":0.0017,"nx":28,"ny":28,"refTime":"2026-01-30T03:00:00:Z","depth":0,"parameterNumber":3,"parameterNumberName":"V-component_of_WINDS"},"data":[0,0,0,0,0,0,0,0,0,0,0,0,0,0,0,0,0,0,0,0,0,0,0,0,0,0,0,0,0,0,0,0,0,0,0,0,0,0,0,0,0,0,0,0,0,0,0,0,0,0,0,0,0,0,0,0,0,0,-8.9007,-8.9009,0,-8.9201,-8.9204,-8.9206,-8.9133,-8.9128,-8.9124,-8.9119,-8.9312,-8.9321,-8.9331,0,0,0,0,0,0,0,0,0,0,0,0,0,-8.8567,-8.8575,-8.9007,-8.9009,-8.9012,-8.9201,-8.9204,-8.9206,-8.9133,-8.9128,-8.9123,-8.9117,-8.9309,-8.932,-8.9331,0,0,0,0,0,0,0,0,0,0,0,0,0,-8.8759,-8.8578,-8.9006,-8.8998,-8.8999,-8.9201,-8.9204,-8.9207,-8.9134,-8.9128,-8.9121,-8.9115,-8.9306,-8.9319,-8.9333,-8.9552,0,0,-8.9375,-8.9381,0,0,0,0,0,0,0,0,-8.8748,-8.8775,-8.8997,-8.8999,-8.9001,-8.9136,-8.9119,-8.9322,-8.9136,-8.9083,-8.9119,-8.9112,-8.9259,-8.9276,-8.9327,-8.9561,-8.9569,-8.9377,-8.9385,-8.9391,-8.9395,0,0,0,0,0,0,0,-8.8735,-8.8767,-8.9083,-8.9,-8.9003,-8.8983,-8.9003,-8.9157,-8.9205,-8.9087,-8.9082,-8.9107,-8.9258,-8.9314,-8.9331,-8.9572,-8.9376,-8.9389,-8.9397,-8.9403,-8.9996,-9.0003,0,0,0,0,0,0,-8.8722,-8.8756,-8.9077,-8.9089,-8.8856,-8.8996,-8.9019,-8.9099,-8.9204,-8.9213,-8.9112,-8.9103,-8.9293,-8.9315,-8.9337,-8.9601,-8.9391,-8.9404,-8.9412,-8.9988,-8.9997,-9.0005,0,0,0,0,0,0,-8.8713,-8.8751,-8.9069,-8.8922,-8.8961,-8.9011,-8.9102,-8.9107,-8.9162,-8.9223,-8.923,-8.916,-8.9289,-8.9318,-8.95,-8.9607,-8.941,-8.9423,-8.9979,-8.9991,-9.0001,-9.013,0,0,0,0,0,0,-8.87,-8.8748,-8.8833,-8.8924,-8.8969,-8.9231,-8.9109,-8.9115,-8.9187,-8.9176,-8.927,-8.9279,-8.9286,-8.9479,-8.9513,-8.9622,-8.9434,-8.997,-8.9985,-8.9998,-9.0117,-9.0144,-9.0168,0,0,0,0,0,-8.8685,-8.886,-8.8838,-8.8877,-8.9076,-8.9237,-8.9262,-8.9269,-8.9196,-8.9281,-8.932,-8.9276,-8.959,-8.9499,-8.9536,-8.9651,-8.9963,-8.998,-8.9997,-9.0105,-9.0139,-9.0168,0,0,0,0,0,0,-8.8778,-8.8872,-8.8848,-8.9058,-8.9141,-8.9224,-8.9332,-8.9304,-8.9407,-8.9392,-8.9394,-8.9415,-8.9603,-8.9645,-8.9542,-8.9869,-8.9765,-8.979,-8.9835,-8.9867,-8.9893,-8.9879,-8.9445,0,0,0,0,0,-8.8824,-8.8948,-8.9022,-8.9201,-8.9243,-8.9281,-8.9351,-8.9349,-8.9433,-8.9467,-8.9519,-8.9601,-8.9718,-8.9795,-8.9906,-9.0122,-9.0141,-9.022,-9.0245,-9.0266,-9.0288,-9.0406,-9.0442,-9.006,-9.006,-9.006,0,0,-8.8918,-8.8984,-8.9062,-8.9221,-8.9284,-8.9412,-8.931,-8.9449,-8.9543,-8.9487,-8.9663,-8.9704,-8.9795,-8.9996,-9.0087,-9.0037,-9.0398,-9.0288,-9.0304,-9.0314,-9.0427,-9.0463,-9.0495,-9.0071,-9.0069,-9.0067,0,0,-8.9155,-8.9218,-8.9374,-8.9441,-8.9539,-8.9563,-8.9601,-8.9689,-8.9715,-8.9892,-8.9853,-8.9964,-9.0166,-9.0233,-9.0293,-9.0558,-9.0521,-9.0593,-9.0728,-9.0843,-9.0873,-9.09,-9.0995,-9.1029,-9.0615,-9.0615,-9.0615,0,-8.9259,-8.9452,-8.9457,-8.9601,-8.9672,-8.9629,-8.9787,-8.985,-8.9978,-9.0028,-8.997,-9.0223,-9.0281,-9.0497,-9.0562,-9.0612,-9.0655,-9.0583,-9.0869,-9.0896,-9.0921,-9.1011,-9.1047,-9.0623,-9.0622,-9.0621,-9.0621,0,-8.9576,-8.971,-8.9824,-8.9952,-9.0036,-9.0185,-9.0212,-9.0296,-9.0287,-9.0316,-9.0497,-9.0566,-9.069,-9.0741,-9.0733,-9.0957,-9.0923,-9.0867,-9.0763,-9.0965,-9.105,-9.1085,-9.0635,-9.0632,-9.063,-9.0628,0,0,-8.9877,-9.0008,-9.0049,-9.0108,-9.0213,-9.0316,-9.0463,-9.0588,-9.066,-9.075,-9.0873,-9.1045,-9.0996,-9.1064,-9.1063,-9.1164,-9.137,-9.1096,-9.1098,-9.1145,-9.1621,-9.1663,-9.1703,-9.1346,-9.1353,-9.1358,-9.1614,0,-9.0123,-9.0384,-9.0394,-9.0632,-9.0755,-9.0717,-9.0846,-9.0924,-9.0956,-9.1064,-9.1097,-9.122,-9.1145,-9.1186,-9.1285,-9.1324,-9.1465,-9.1305,-9.146,-9.1465,-9.1439,-9.1747,-9.1791,-9.203,-9.1647,-9.1653,-9.1657,0,-9.0445,-9.0549,-9.08,-9.0889,-9.0941,-9.1057,-9.1172,-9.1277,-9.1364,-9.138,-9.1458,-9.1442,-9.1591,-9.1483,-9.1688,-9.1579,-9.1642,-9.1671,-9.1681,-9.1695,-9.1573,-9.1771,-9.2105,-9.2142,-9.1709,-9.1705,-9.1701,0,-9.064,-9.0842,-9.1019,-9.1069,-9.1178,-9.126,-9.1309,-9.139,-9.1464,-9.1564,-9.1612,-9.1728,-9.1791,-9.188,-9.1895,-9.1814,-9.2101,-9.1993,-9.2117,-9.2117,-9.218,-9.2176,-9.253,-9.222,-9.222,-9.2219,-9.2218,0,-9.0915,-9.107,-9.1108,-9.1217,-9.1389,-9.1398,-9.1568,-9.161,-9.1683,-9.1798,-9.1771,-9.1879,-9.1892,-9.2004,-9.2016,-9.2185,-9.2213,-9.2229,-9.2231,-9.2232,-9.223,-9.2274,-9.2258,-9.2228,-9.2226,-9.2224,-9.2223,0,-9.1162,-9.1194,-9.1384,-9.1472,-9.1498,-9.1621,-9.1695,-9.1799,-9.1828,-9.1974,-9.2009,-9.2054,-9.2184,-9.2209,-9.2361,-9.2369,-9.257,-9.2554,-9.2542,-9.254,-9.2663,-9.2652,-9.3058,-9.3112,-9.2767,-9.277,-9.2773,0,-9.1335,-9.1454,-9.1556,-9.1632,-9.1686,-9.1809,-9.1886,-9.1899,-9.1979,-9.2089,-9.2179,-9.2306,-9.2409,-9.2618,-9.2664,-9.278,-9.2767,-9.2902,-9.2784,-9.2782,-9.277,-9.2763,-9.2775,-9.2924,-9.2928,-9.2931,-9.2933,0,-9.164,-9.165,-9.1763,-9.1882,-9.1975,-9.2069,-9.2158,-9.2221,-9.2246,-9.2338,-9.2472,-9.2552,-9.2709,-9.2836,-9.2952,-9.3,-9.2972,-9.297,-9.3005,-9.3008,-9.2996,-9.3005,-9.2604,-9.2961,-9.2958,-9.2956,-9.2955,-9.2953,-9.1856,-9.196,-9.2049,-9.2175,-9.2244,-9.2328,-9.2431,-9.2474,-9.2586,-9.2717,-9.2717,-9.2864,-9.2948,-9.3102,-9.3158,-9.3271,-9.3228,-9.3279,-9.3291,-9.3304,-9.3316,-9.2978,-9.3292,-9.3291,-9.3291,-9.329,-9.329,0,-9.2159,-9.2215,-9.2332,-9.2458,-9.2558,-9.2525,-9.2621,-9.2706,-9.2837,-9.2919,-9.3022,-9.3176,-9.3299,-9.3355,-9.3476,-9.3556,-9.3546,-9.3587,-9.3581,-9.3593,-9.3347,-9.3305,-9.3593,-9.3593,-9.3593,-9.3593,-9.3593,-9.3593,-9.2329,-9.2505,-9.2526,-9.2734,-9.2788,-9.2934,-9.2992,-9.3069,-9.3135,-9.3309,-9.3412,-9.3449,-9.352,-9.3647,-9.3758,-9.3771,-9.3817,-9.3865,-9.3871,-9.3641,-9.361,-9.3581,-9.3541,-9.3874,-9.3875,-9.4108,-9.411,-9.4112]}]]